Temp
3 3 5 6 7 7 6 6 7 5 5 5 8 7 11 9 11 10 10 10 10 10 10 10 11 11 11 10 10 10 11 9 9 11 11 11 11 12 11 10 11 9 11 10
3 3 4 6 6 6 5 6 7 4 4 6 8 11 10 10 10 10 10 10 11 11 10 9 11 11 10 10 10 9 9 10 8 10 10 11 11 11 11 11 11 12 11 11
3 3 3 5 6 6 6 6 7 3 3 5 7 9 11 10 10 10 11 10 10 10 10 11 10 10 11 9 10 9 8 10 10 8 7 9 11 11 12 12 9 12 11 12
3 3 3 3 6 5 5 6 8 8 7 8 8 10 10 10 10 9 10 10 10 10 9 10 11 11 10 9 10 9 9 8 8 9 10 10 10 11 12 12 11 12 11 12
3 3 3 2 5 5 4 7 8 8 9 10 10 9 10 10 11 11 10 9 10 10 9 9 9 9 10 10 10 10 9 7 9 8 10 9 9 10 12 12 12 11 12 13
3 3 3 3 3 4 4 6 7 7 10 10 9 10 10 11 11 11 10 9 9 9 9 8 8 8 8 8 8 10 9 8 7 8 10 9 8 10 11 12 12 13 13 13
3 3 3 2 3 4 4 5 6 8 9 9 10 11 11 10 9 9 9 8 9 7 7 7 8 8 8 8 8 8 9 8 7 6 9 7 11 9 10 12 12 11 12 12
3 3 3 3 2 3 4 4 6 7 8 10 11 11 10 10 8 8 8 8 7 7 7 6 7 7 8 8 9 8 8 8 7 6 7 10 12 10 10 11 13 12 12 13
4 3 3 3 2 2 3 4 4 6 6 9 10 10 10 8 8 7 7 6 6 6 7 7 8 8 10 7 7 7 7 7 7 8 8 10 12 10 10 10 11 10 10 10
4 3 3 3 3 2 3 3 4 5 6 8 8 8 8 9 9 8 7 5 5 6 6 7 7 8 8 7 9 6 6 7 6 6 7 9 10 9 9 11 10 9 9 9
4 4 3 3 3 3 2 3 4 4 5 7 7 7 8 8 8 8 6 6 5 5 6 7 8 7 7 7 10 9 7 6 6 7 8 6 9 9 10 9 9 9 8 7
4 4 3 3 3 3 2 2 3 4 4 5 6 6 7 7 7 7 6 7 8 8 6 6 7 6 7 8 8 7 6 8 8 9 8 9 9 10 9 10 9 8 8 7
4 4 4 3 3 3 3 2 3 3 3 5 5 6 7 6 6 7 7 7 7 7 7 6 6 6 6 7 8 9 8 8 6 7 11 9 10 10 9 9 9 8 8 7
4 4 4 3 3 3 2 2 3 3 4 4 5 4 5 5 5 6 6 6 6 6 6 6 5 6 7 7 6 6 8 6 7 7 8 10 10 10 10 9 8 8 7 7
4 5 4 4 3 2 2 2 3 3 4 4 4 4 4 4 4 4 5 5 5 5 5 4 4 6 5 5 3 4 6 6 7 8 10 10 8 9 9 9 8 7 7 6
3 4 4 4 3 2 2 2 2 2 3 4 3 3 2 2 2 3 3 3 4 5 6 5 6 5 4 3 5 9 10 10 10 10 9 10 9 8 8 7 7 7 7 6
3 4 4 4 2 2 2 3 3 3 2 4 3 2 0 1 1 2 2 2 3 4 5 4 5 4 4 3 4 10 11 10 9 9 9 8 8 8 8 7 7 6 6 6
1 3 3 3 3 2 3 2 4 2 3 4 1 1 1 1 1 1 2 2 2 3 4 3 3 3 3 2 5 9 9 9 8 8 8 8 8 7 7 6 6 5 5 5
1 2 2 2 2 2 2 2 2 2 3 3 1 1 2 1 1 1 1 2 0 2 1 2 2 2 1 4 6 8 9 8 8 6 6 6 7 7 6 6 5 5 5 4
0 1 2 0 1 2 2 1 1 1 2 2 2 3 -0 1 1 2 1 2 1 -1 1 1 -0 2 5 7 7 7 8 7 7 5 4 4 5 6 6 6 5 5 5 5
-0 -0 -0 0 1 1 1 -0 0 0 0 1 1 2 -1 1 1 1 2 -0 0 -0 -0 0 1 3 4 5 5 5 6 6 7 6 7 7 7 6 5 5 4 4 4 4
-1 -1 -1 -0 0 -0 0 1 0 0 2 1 0 1 1 1 2 1 0 1 -0 -0 -0 -1 1 2 5 5 5 5 5 4 5 5 6 7 6 6 5 5 5 4 4 4
-1 -1 -1 -1 -1 1 2 2 2 1 1 -1 -1 -1 -0 0 0 -0 -0 1 1 0 -0 -0 2 3 3 3 4 5 4 4 3 4 5 6 6 5 5 5 4 4 3 3
-2 -1 -0 -0 0 0 0 0 1 -1 0 -1 0 -1 -0 -1 -0 -1 1 0 -0 -0 -1 1 1 2 2 2 3 4 4 4 4 4 5 5 5 5 4 4 4 4 3 3
-2 -2 -0 0 -1 -2 -2 -2 -2 -1 -0 0 -0 -1 -0 -1 -0 -0 -1 -1 0 -1 -0 -0 1 1 1 2 2 3 3 4 3 4 4 4 4 4 4 3 3 3 3 3
-3 -2 -1 -1 -1 -1 -1 -2 -2 -2 -1 -0 -0 -0 1 0 1 -0 1 -0 -1 -1 -2 1 1 1 1 2 2 2 3 3 3 3 3 3 4 4 4 3 3 3 3 3
-3 -2 -3 -2 -2 -2 -2 -2 -3 -2 -1 -0 -0 1 1 -1 -0 0 -1 -1 -1 1 1 1 1 2 2 3 3 3 3 3 3 3 3 3 3 3 3 3 3 2 2 2
Height
1487 1488 1490 1493 1494 1495 1497 1497 1499 1498 1500 1504 1498 1494 1486 1486 1484 1486 1486 1484 1482 1479 1476 1472 1469 1468 1466 1468 1467 1466 1461 1463 1461 1453 1450 1451 1452 1449 1453 1458 1455 1456 1440 1448
1481 1484 1486 1488 1491 1492 1494 1495 1496 1496 1499 1497 1491 1485 1486 1485 1483 1483 1482 1481 1478 1477 1477 1478 1468 1467 1467 1468 1467 1468 1465 1461 1468 1456 1455 1451 1450 1449 1449 1450 1448 1443 1443 1448
1476 1479 1481 1484 1486 1489 1492 1493 1493 1495 1497 1493 1492 1486 1480 1481 1480 1481 1480 1479 1478 1477 1474 1470 1471 1469 1466 1468 1467 1467 1467 1461 1460 1469 1468 1460 1450 1449 1446 1447 1457 1445 1444 1440
1470 1473 1476 1480 1482 1486 1490 1489 1486 1484 1488 1486 1486 1484 1480 1479 1478 1480 1479 1477 1476 1475 1474 1469 1466 1465 1466 1466 1466 1465 1466 1466 1464 1459 1455 1454 1453 1449 1448 1449 1447 1449 1446 1444
1463 1468 1471 1475 1478 1483 1486 1485 1484 1483 1482 1480 1482 1481 1478 1476 1474 1475 1475 1477 1473 1473 1475 1473 1472 1471 1467 1464 1465 1463 1464 1468 1461 1461 1454 1455 1455 1449 1446 1447 1446 1446 1443 1442
1457 1463 1467 1470 1474 1479 1481 1481 1480 1482 1479 1477 1479 1475 1473 1472 1473 1473 1474 1474 1475 1473 1473 1472 1471 1471 1470 1469 1469 1463 1465 1466 1469 1461 1454 1454 1457 1443 1443 1444 1443 1441 1444 1443
1451 1457 1461 1465 1470 1474 1477 1478 1479 1480 1477 1474 1472 1471 1472 1472 1473 1473 1473 1474 1474 1475 1473 1472 1470 1469 1468 1467 1466 1466 1464 1465 1469 1469 1458 1469 1435 1436 1436 1439 1438 1438 1440 1441
1446 1451 1457 1461 1466 1470 1473 1475 1477 1477 1475 1471 1467 1468 1471 1472 1472 1474 1473 1473 1473 1473 1473 1473 1469 1468 1466 1462 1463 1465 1465 1465 1468 1473 1463 1444 1433 1436 1437 1437 1438 1437 1437 1439
1442 1447 1452 1457 1463 1467 1468 1470 1474 1474 1477 1467 1466 1467 1468 1471 1469 1471 1472 1473 1472 1473 1473 1473 1470 1465 1458 1465 1466 1466 1466 1466 1471 1464 1462 1451 1435 1437 1437 1436 1442 1439 1438 1440
1438 1442 1448 1453 1458 1462 1465 1467 1470 1472 1474 1467 1466 1467 1468 1468 1466 1467 1470 1471 1473 1473 1472 1472 1470 1465 1462 1464 1458 1468 1468 1466 1470 1470 1465 1449 1438 1438 1438 1442 1447 1441 1441 1441
1432 1437 1442 1448 1453 1458 1461 1463 1466 1468 1470 1466 1464 1465 1466 1466 1467 1465 1469 1472 1472 1473 1473 1470 1465 1468 1464 1463 1453 1456 1462 1466 1466 1462 1459 1465 1440 1441 1440 1444 1442 1442 1442 1443
1424 1431 1437 1443 1448 1453 1457 1460 1462 1465 1467 1464 1462 1463 1464 1465 1465 1466 1466 1467 1466 1466 1468 1467 1467 1467 1463 1461 1458 1456 1463 1453 1453 1451 1449 1439 1439 1440 1440 1441 1442 1443 1443 1444
1419 1425 1431 1437 1443 1449 1453 1456 1460 1462 1464 1462 1459 1457 1459 1460 1462 1464 1465 1465 1465 1465 1465 1466 1466 1467 1462 1462 1456 1451 1451 1449 1454 1450 1435 1435 1436 1439 1440 1441 1441 1443 1443 1444
1414 1420 1424 1432 1438 1445 1449 1452 1457 1459 1461 1459 1455 1454 1455 1456 1458 1460 1462 1463 1464 1465 1465 1465 1465 1465 1461 1458 1456 1455 1447 1448 1447 1444 1435 1434 1434 1436 1437 1439 1441 1442 1443 1445
1410 1413 1420 1428 1434 1441 1446 1450 1452 1455 1459 1456 1454 1453 1453 1453 1455 1456 1458 1461 1463 1464 1465 1465 1464 1460 1461 1456 1457 1452 1441 1439 1442 1438 1432 1432 1433 1434 1435 1437 1439 1440 1442 1444
1405 1408 1413 1422 1430 1436 1443 1447 1448 1450 1453 1457 1454 1452 1451 1452 1453 1454 1456 1459 1461 1462 1462 1461 1459 1458 1460 1460 1451 1430 1428 1430 1431 1431 1431 1431 1433 1434 1435 1436 1438 1439 1441 1444
1404 1406 1411 1417 1425 1431 1436 1440 1440 1441 1450 1453 1452 1450 1450 1451 1452 1454 1455 1458 1459 1460 1460 1458 1457 1457 1457 1455 1446 1426 1424 1426 1429 1429 1431 1432 1432 1433 1434 1435 1436 1438 1440 1443
1405 1407 1411 1417 1423 1429 1432 1436 1437 1440 1447 1448 1449 1449 1451 1451 1452 1453 1454 1457 1458 1458 1457 1457 1455 1455 1453 1448 1425 1422 1424 1424 1425 1427 1429 1429 1430 1431 1433 1435 1436 1438 1441 1443
1405 1406 1411 1416 1422 1426 1428 1434 1437 1439 1445 1442 1444 1446 1446 1448 1450 1451 1454 1456 1458 1456 1455 1454 1454 1449 1443 1420 1417 1419 1419 1420 1421 1424 1426 1428 1429 1431 1432 1434 1436 1438 1440 1443
1404 1407 1408 1414 1417 1423 1429 1433 1437 1438 1437 1439 1439 1440 1444 1445 1447 1450 1452 1453 1454 1458 1452 1451 1451 1436 1417 1414 1414 1417 1418 1418 1419 1421 1423 1425 1426 1428 1429 1431 1434 1436 1438 1441
1402 1403 1406 1411 1416 1420 1425 1428 1431 1433 1434 1433 1433 1435 1438 1442 1444 1447 1450 1451 1452 1457 1451 1452 1443 1429 1413 1411 1410 1410 1412 1414 1417 1419 1420 1421 1423 1425 1427 1430 1433 1436 1438 1441
1402 1403 1405 1410 1412 1416 1420 1422 1425 1426 1424 1426 1429 1432 1434 1439 1441 1444 1448 1450 1453 1455 1449 1452 1440 1417 1413 1411 1409 1409 1409 1411 1413 1416 1418 1420 1421 1424 1427 1429 1432 1435 1438 1441
1405 1405 1406 1405 1410 1410 1411 1412 1414 1417 1418 1421 1425 1431 1433 1437 1440 1443 1446 1448 1449 1448 1449 1443 1422 1415 1414 1412 1410 1408 1408 1410 1412 1415 1417 1419 1421 1423 1426 1428 1432 1435 1438 1442
1405 1405 1405 1404 1406 1407 1408 1408 1408 1412 1415 1417 1422 1428 1431 1435 1438 1440 1441 1444 1446 1448 1448 1430 1418 1417 1413 1411 1410 1410 1409 1410 1412 1415 1417 1419 1420 1422 1425 1428 1431 1434 1438 1441
1407 1406 1404 1405 1408 1410 1411 1411 1412 1413 1416 1419 1423 1427 1430 1433 1435 1437 1442 1444 1440 1436 1428 1421 1418 1415 1413 1411 1410 1410 1410 1411 1413 1415 1418 1419 1421 1423 1425 1428 1431 1435 1438 1441
1409 1409 1408 1409 1409 1410 1411 1411 1413 1415 1417 1420 1421 1424 1426 1427 1427 1432 1430 1434 1432 1426 1422 1420 1417 1413 1411 1410 1410 1411 1411 1411 1413 1415 1417 1420 1422 1423 1425 1427 1430 1433 1436 1439
1410 1411 1410 1410 1411 1411 1412 1411 1413 1415 1418 1419 1419 1419 1418 1424 1424 1423 1422 1424 1423 1422 1422 1420 1418 1415 1412 1411 1410 1411 1412 1412 1413 1415 1417 1419 1421 1423 1425 1427 1430 1432 1435 1438
Wind_Speed
19 17 15 12 6 3 5 5 3 3 7 3 6 3 3 1 4 7 4 3 7 7 8 6 4 4 5 5 7 5 2 4 3 0 3 2 2 2 2 1 5 4 3 1
21 17 15 14 9 7 8 4 2 3 8 3 5 5 3 5 4 5 3 4 5 6 4 4 5 4 4 3 3 5 6 3 3 2 1 2 2 3 3 5 5 4 2 0
22 19 15 15 13 9 10 3 2 2 6 9 4 5 6 6 7 6 6 7 7 6 7 7 5 6 1 1 3 2 3 4 2 2 7 3 1 4 2 4 2 7 6 3
25 22 16 15 15 12 10 7 4 4 3 8 9 5 6 5 4 5 3 4 8 8 4 7 6 4 4 4 3 3 1 3 5 5 6 3 3 2 4 3 6 3 6 7
26 23 19 16 16 15 14 4 3 2 6 0 5 6 4 6 6 2 5 6 8 4 6 7 4 5 3 3 3 2 1 3 4 4 4 5 4 5 5 3 5 6 4 5
29 25 21 17 17 18 8 8 9 1 6 5 4 5 7 1 1 3 6 4 5 7 3 6 7 7 7 4 4 2 2 2 3 3 2 5 6 7 7 4 5 3 2 2
28 28 23 20 17 21 14 8 8 4 4 5 5 2 2 3 6 3 2 3 4 1 4 8 8 9 8 8 6 4 2 2 1 4 3 2 6 3 4 10 6 8 3 3
26 29 26 22 18 18 21 15 8 3 4 8 6 7 5 3 2 2 3 3 3 2 3 3 3 3 3 5 2 4 3 3 3 1 3 8 3 1 3 5 3 2 5 3
26 29 28 24 20 18 19 16 15 6 4 2 2 3 6 4 5 3 4 4 3 3 2 1 2 2 2 2 3 2 3 3 0 2 3 3 2 2 1 1 1 4 5 4
27 29 29 26 23 18 16 14 14 11 6 6 2 3 1 3 3 2 4 3 2 4 1 2 3 2 1 2 3 3 2 2 5 5 3 6 2 3 1 4 2 3 3 3
28 28 31 27 24 19 18 16 13 17 6 8 6 5 3 2 4 2 5 3 2 2 1 1 1 1 0 2 2 3 5 4 4 3 3 6 4 2 1 3 4 5 4 3
32 28 30 29 26 21 16 16 14 16 14 7 6 7 11 12 6 1 7 0 2 3 2 1 1 2 1 2 3 3 2 3 2 4 5 1 10 3 4 4 6 4 4 6
30 33 29 29 27 23 19 16 14 13 8 13 15 13 16 15 15 11 4 3 5 2 3 2 1 3 2 2 3 1 3 3 2 4 3 5 9 10 5 5 4 3 5 6
27 32 30 30 29 25 22 19 15 14 3 4 4 7 9 9 14 15 14 5 3 3 3 2 2 2 0 2 2 2 2 5 4 5 9 8 8 8 10 9 8 4 2 8
26 33 32 30 29 26 21 17 16 14 9 2 2 6 7 7 8 12 12 10 6 3 2 2 3 1 0 2 2 4 8 6 4 4 2 4 2 6 8 7 7 5 7 11
17 33 38 33 30 28 21 12 19 21 18 3 2 2 3 5 7 8 8 9 8 5 3 3 2 2 1 2 3 6 20 14 14 2 2 5 9 7 6 6 6 7 7 9
7 30 33 31 32 30 24 7 4 20 19 5 2 2 1 6 6 5 5 7 5 5 3 3 2 3 4 2 4 7 11 14 12 12 6 5 8 5 6 6 8 11 10 11
5 22 21 26 30 28 26 8 6 21 16 5 2 1 3 7 4 3 6 4 5 4 2 2 3 3 4 5 12 17 7 7 10 13 13 6 7 8 7 7 9 12 12 13
9 17 21 22 21 17 16 16 10 27 7 5 4 3 3 9 3 4 5 5 2 3 2 3 2 3 6 9 11 13 12 9 6 16 15 12 9 9 9 11 12 12 14 14
10 20 11 7 12 13 17 13 12 12 6 5 3 4 2 7 5 4 5 2 2 1 3 3 3 4 22 26 21 14 11 12 10 16 13 15 15 14 15 15 14 14 15 17
2 4 4 13 28 13 8 6 5 6 2 8 6 11 5 9 3 3 3 2 1 1 2 2 3 4 3 6 3 10 20 20 13 11 6 9 10 16 16 16 15 14 16 17
2 6 12 17 7 4 4 4 4 3 4 10 7 4 5 7 5 3 2 2 1 4 5 1 3 3 10 7 6 4 5 13 13 12 7 7 9 12 14 15 16 16 17 18
3 2 5 4 2 3 6 7 3 4 7 8 7 3 5 5 3 5 2 4 4 5 2 4 4 6 12 10 5 2 3 10 12 12 10 9 9 11 13 15 16 17 18 18
1 2 2 1 3 0 2 2 2 3 5 16 16 7 4 4 3 3 4 2 3 2 3 5 1 16 16 8 4 1 3 8 11 12 11 10 10 12 13 13 16 18 20 20
2 2 1 2 4 4 3 4 4 6 12 17 10 5 3 2 3 2 3 3 4 5 4 2 14 15 12 8 4 3 3 6 10 10 10 9 10 11 13 15 16 18 19 19
2 2 2 2 1 4 3 5 5 8 13 10 4 3 3 3 3 4 6 5 5 2 1 10 14 13 10 8 2 3 2 4 6 9 9 10 11 12 14 17 18 19 19 19
3 3 4 4 5 6 5 4 4 9 7 1 2 3 2 2 2 3 3 3 2 7 10 13 14 18 17 11 3 1 2 2 4 7 9 10 12 14 16 19 20 20 19 18
Wind_Direction
226 232 238 230 222 213 180 139 234 212 172 217 232 234 230 309 243 204 262 271 266 273 328 307 312 334 349 22 315 304 76 297 282 53 151 171 231 108 70 288 335 270 229 5
223 228 235 223 213 195 170 189 184 217 172 233 217 214 240 241 223 212 222 250 233 315 297 317 330 353 93 345 312 360 344 290 313 279 237 197 241 148 206 249 271 262 351 325
219 225 228 223 212 197 192 185 195 149 210 264 277 291 262 222 195 278 249 270 293 275 268 247 269 301 100 14 283 306 297 283 259 241 258 291 167 192 190 302 330 326 15 110
215 220 228 227 208 205 192 199 243 164 195 225 223 274 302 240 217 213 234 264 238 278 293 314 266 353 280 186 239 256 72 286 9 299 247 295 272 328 170 238 264 359 325 354
213 215 222 229 207 205 204 215 233 209 282 359 237 220 256 233 241 167 214 225 297 290 274 278 335 351 313 8 177 293 251 285 318 277 196 263 279 260 242 217 305 299 299 325
210 215 218 223 217 200 198 219 241 262 284 184 213 225 213 166 257 219 271 340 321 280 307 349 308 273 285 282 315 215 271 314 353 297 303 304 293 221 193 164 216 218 259 58
208 214 216 220 225 207 202 205 181 194 262 204 213 213 277 248 223 273 124 229 256 309 317 308 280 255 246 250 233 250 280 238 237 273 326 269 243 60 103 190 213 225 255 112
209 212 214 218 224 214 215 218 203 205 270 273 248 236 234 216 207 228 253 196 222 285 324 309 285 223 241 223 196 241 212 302 277 189 259 272 244 260 142 154 236 327 219 190
212 211 211 214 219 223 218 219 216 198 300 246 286 325 213 235 201 143 178 255 231 152 270 280 271 275 347 216 195 215 290 262 273 305 261 278 308 97 35 5 224 20 36 27
211 208 211 211 214 221 220 220 217 203 251 273 230 235 191 199 310 84 137 171 141 169 236 253 241 282 67 280 245 169 187 216 205 252 272 300 338 114 169 130 196 60 43 9
210 209 210 211 213 213 220 227 217 204 237 274 259 249 230 238 259 271 142 119 215 150 218 248 282 262 212 317 201 181 179 178 201 200 218 277 164 69 59 174 84 71 48 44
212 207 207 208 210 209 215 226 219 219 232 262 262 271 251 235 231 175 182 261 164 197 214 249 333 277 196 290 277 2 279 201 208 188 219 104 190 66 126 100 118 81 63 109
209 212 204 207 207 207 212 219 224 210 235 273 266 263 251 238 229 225 193 213 198 205 209 353 315 261 105 249 240 320 247 132 237 20 319 201 204 211 195 168 155 87 75 124
207 213 201 205 204 205 208 215 217 204 187 262 232 243 247 238 223 220 218 211 200 225 195 227 250 250 94 271 262 234 215 130 216 258 279 260 255 216 226 217 228 221 149 149
210 215 209 203 201 202 206 215 219 214 211 297 332 284 260 233 219 214 214 219 211 194 193 189 230 258 296 233 7 248 185 195 177 229 6 103 138 182 214 209 206 201 167 157
213 219 202 206 198 196 194 220 231 219 218 265 279 252 258 218 199 196 194 197 200 200 231 228 228 238 209 282 249 256 207 215 228 214 158 125 145 141 144 156 166 170 167 167
197 201 212 196 200 194 184 195 197 200 190 211 249 199 230 170 168 164 174 193 201 194 234 239 251 187 198 252 244 261 229 224 226 232 199 167 177 183 180 188 175 171 167 161
125 184 189 196 193 197 200 194 188 168 171 197 184 203 183 168 165 143 165 188 198 215 250 250 224 186 217 253 243 249 257 208 210 223 211 221 194 187 173 169 166 164 163 162
175 162 177 181 186 194 192 183 151 165 181 188 165 181 192 163 144 122 154 182 194 207 228 229 175 225 227 229 238 241 237 226 215 205 212 203 196 187 179 175 171 172 164 165
172 157 165 167 178 191 182 143 165 194 212 202 218 168 160 158 162 173 124 188 223 212 227 156 216 256 255 255 255 264 239 227 211 182 195 199 200 197 188 184 181 181 176 171
169 136 113 137 146 139 164 159 168 174 204 196 211 186 146 176 137 150 196 177 138 245 248 153 254 265 266 330 300 246 240 243 230 220 223 217 222 201 190 182 182 179 177 174
44 125 137 142 150 142 155 171 156 185 202 173 159 164 130 142 139 117 149 117 85 240 146 112 261 258 341 313 300 314 218 208 212 205 202 186 188 190 191 188 186 181 177 175
158 118 158 163 139 162 187 182 179 175 161 157 143 117 133 124 124 93 127 176 216 127 183 231 238 346 347 331 316 329 161 186 197 195 192 183 179 181 189 187 184 182 178 176
348 348 156 228 152 244 42 359 69 111 151 155 143 120 131 132 136 141 177 140 130 218 237 235 321 341 333 322 280 273 152 166 173 178 182 184 185 185 184 187 187 183 180 177
40 352 340 92 88 93 77 93 99 115 148 146 118 97 125 149 126 169 106 149 232 215 233 269 340 341 339 336 239 212 191 182 187 192 191 194 192 191 185 182 185 185 184 184
41 15 337 50 254 128 100 86 100 138 155 145 131 146 174 182 151 154 203 173 222 248 315 3 10 5 1 1 281 225 211 203 204 206 205 201 199 195 190 186 187 188 191 192
11 61 32 8 57 70 69 79 122 154 142 162 160 198 152 91 179 215 192 205 150 111 43 30 27 27 26 22 27 266 268 223 202 195 195 198 199 198 198 196 191 193 195 200